カタログに戻る

STARLINK-3227

運用中通信VLEO
NORAD 49765·PAYLOAD·🇺🇸 United States

打ち上げ Dec 2, 2021 から Cape Canaveral Space Force Station

Loading…

次のパス (今後24時間)

TLE

最新Source: CelesTrak SupGP

元期: Sep 14, 2026, 21:06 UTC

1 49765C 21115AT  26257.87965278 -.00028675  00000+0 -92214-3 0  2572
2 49765  53.1592 355.3840 0001208  81.3668 128.2628 15.31715584    19

AllMySatでSTARLINK-3227をリアルタイム追跡

Download on the App Store